Location: Ripley
(48.3812°N, 115.4473°W)
Time: 01:58:35
(UTC+00:00)

RS-15 - Pass Details

Date: 04 July 2022
Orbit: 1881 x 2163 km, 64.8° (Epoch: 10 August)

Event Time Altitude Azimuth Distance (km) Brightness Sun altitude
Rises 04:12:45 0° 306° (NW) 5,677 13.2 -4.3°
Reaches altitude 10° 04:16:33 10° 313° (NW) 4,685 12.0 -4.7°
Maximum altitude 04:28:19 45° 25° (NNE) 2,746 9.0 -6.1°
Drops below altitude 10° 04:39:50 10° 96° (E) 4,611 9.6 -7.5°
Sets 04:43:30 0° 103° (ESE) 5,581 9.9 -7.9°
